Regional Weather Roundup
Issued by NWS

Home | Current Version | Previous Version | Text Only | Print | Product List | Glossary On
Versions: 1 2 3 4 5 6 7 8 9 10 11 12 13 14 15 16 17 18 19 20 21 22 23 24 25 26 27 28 29 30 31 32 33 34 35 36 37 38 39 40 41 42 43 44 45 46 47 48 49 50
000
ASUS43 KTOP 271759
RWRKS

WEATHER ROUNDUP FOR KANSAS
NATIONAL WEATHER SERVICE GOODLAND KS
1200 PM CST SAT DEC 27 2014

NOTE:  "FAIR" INDICATES FEW OR NO CLOUDS BELOW 12,000 FEET WITH NO
SIGNIFICANT WEATHER AND/OR OBSTRUCTIONS TO VISIBILITY.

KSZ001>006-013>018-027>032-041>047-271900-
NORTHWEST KANSAS

CITY           SKY/WX    TMP DP  RH WIND       PRES   REMARKS
GOODLAND       SUNNY     21  13  71 NW15      30.22F WCI   8
6HR MIN TEMP:   5; 6HR MAX TEMP:  21;

HAYS           SUNNY     27  12  54 N9        30.30F
HILL CITY      SUNNY     23  14  68 NW8       30.29F
6HR MIN TEMP:   7; 6HR MAX TEMP:  23;

RUSSELL        SUNNY     25  18  74 NW12      30.29F WCI  14
6HR MIN TEMP:  15; 6HR MAX TEMP:  25;

$$

KSZ061>065-074>080-084>089-271900-
SOUTHWEST KANSAS

CITY           SKY/WX    TMP DP  RH WIND       PRES   REMARKS
DODGE CITY     MOSUNNY   28  17  63 W10       30.30F WCI  19
6HR MIN TEMP:  16; 6HR MAX TEMP:  28;

ELKHART          N/A     27  13  56 N9          N/A
GARDEN CITY    SUNNY     24  15  68 W10       30.29F WCI  14
6HR MIN TEMP:   8; 6HR MAX TEMP:  24;

GREAT BEND     SUNNY     27  16  63 NW12      30.32F WCI  16
LIBERAL        SUNNY     27  18  69 NW10      30.33F WCI  17
$$

KSZ066>073-081>083-090>101-271900-
SOUTHEAST KANSAS

CITY           SKY/WX    TMP DP  RH WIND       PRES   REMARKS
CHANUTE        CLOUDY    31  23  72 NW12      30.27F WCI  22
6HR MIN TEMP:  30; 6HR MAX TEMP:  33; 6HR PCP: TRACE;

COFFEYVILLE    CLOUDY    32  23  69 NW13      30.29F WCI  22
6HR MIN TEMP:  32; 6HR MAX TEMP:  35; 6HR PCP: TRACE;

HUTCHINSON     SUNNY     32  15  49 NW13      30.31F WCI  22
6HR MIN TEMP:  23; 6HR MAX TEMP:  33;

MEDICINE LODGE   N/A     32  16  51 N14       30.31F WCI  22
NEWTON         SUNNY     30  12  47 NW18      30.30F WCI  18
PARSONS        CLOUDY    32  23  69 NW13      30.29F WCI  22
6HR MIN TEMP:  32; 6HR MAX TEMP:  34; 6HR PCP: TRACE;

WICHITA INTL   MOSUNNY   32  15  49 N12       30.32F WCI  23
6HR MIN TEMP:  27; 6HR MAX TEMP:  33;

WICHITA JABRA  SUNNY     31  15  52 N14       30.31F WCI  21
6HR MIN TEMP:  25; 6HR MAX TEMP:  32;

WINFIELD       MOSUNNY   32  18  56 N12       30.33F WCI  23
6HR MIN TEMP:  29; 6HR MAX TEMP:  32;

$$

KSZ007>012-019>026-033>040-048>060-102>105-271900-
NORTHEAST KANSAS

CITY           SKY/WX    TMP DP  RH WIND       PRES   REMARKS
CONCORDIA      SUNNY     26  18  71 NW8       30.29F
6HR MIN TEMP:  19; 6HR MAX TEMP:  26;

EMPORIA        SUNNY     31  17  56 NW14      30.28F WCI  21
6HR MIN TEMP:  25; 6HR MAX TEMP:  31;

LAWRENCE       PTSUNNY   32  22  66 NW12      30.28F WCI  23
6HR MIN TEMP:  29; 6HR MAX TEMP:  32;

MANHATTAN      SUNNY     30  16  56 VRB6      30.31F
6HR MIN TEMP:  23; 6HR MAX TEMP:  30;

OLATHE IND     CLOUDY    32  23  69 W13       30.25F WCI  22
6HR MIN TEMP:  29; 6HR MAX TEMP:  33;

OLATHE EXE     CLOUDY    30  24  78 NW10      30.24F WCI  21
6HR MIN TEMP:  29; 6HR MAX TEMP:  33; 6HR PCP: TRACE;

SALINA         MOSUNNY   30  17  58 NW10      30.32F WCI  21
6HR MIN TEMP:  23; 6HR MAX TEMP:  30;

TOPEKA BILLARD MOSUNNY   32  20  61 NW13      30.29F WCI  22
6HR MIN TEMP:  29; 6HR MAX TEMP:  33;

TOPEKA FORBES  MOSUNNY   31  20  63 NW10      30.27F WCI  22
6HR MIN TEMP:  28; 6HR MAX TEMP:  32;

$$


USA.gov is the U.S. government's official web portal to all federal, state and local government web resources and services.